SKW5871 KDEN-KASE

Flight info

Callsign SKW5871
Flight time 0h 24m
Altitude 22000
Route CONNR8 CONNR MMARY MMARY1
Aircraft CRJ7/M-SDFGIRWY/S

Departure

Time 2026-05-04 21:51
Airport Denver International Airport (KDEN)

Arrival

Time 2026-05-04 22:15
Airport Aspen-Pitkin County Airport (Sardy Field) (KASE)
Time Latitude Longitude Altitude Speed Heading
2026-05-04 21:30 39.85749 -104.66588 5375 ft 0 kts
2026-05-04 21:40 39.85747 -104.66588 5374 ft 1 kts 360°
2026-05-04 21:40 39.85731 -104.66589 5377 ft 3 kts 360°
2026-05-04 21:40 39.85711 -104.66589 5378 ft 3 kts 360°
2026-05-04 21:41 39.85706 -104.66589 5375 ft 2 kts 360°
2026-05-04 21:41 39.85701 -104.66590 5377 ft 1 kts 360°
2026-05-04 21:43 39.85706 -104.66593 5376 ft 2 kts 319°
2026-05-04 21:44 39.85700 -104.66627 5376 ft 9 kts 227°
2026-05-04 21:44 39.85662 -104.66678 5379 ft 7 kts 262°
2026-05-04 21:44 39.85660 -104.66762 5379 ft 13 kts 270°
2026-05-04 21:44 39.85661 -104.66915 5379 ft 21 kts 271°
2026-05-04 21:45 39.85662 -104.67092 5378 ft 19 kts 269°
2026-05-04 21:45 39.85663 -104.67256 5376 ft 18 kts 271°
2026-05-04 21:45 39.85665 -104.67412 5379 ft 17 kts 270°
2026-05-04 21:45 39.85666 -104.67563 5379 ft 16 kts 270°
2026-05-04 21:46 39.85667 -104.67705 5379 ft 16 kts 270°
2026-05-04 21:46 39.85668 -104.67853 5379 ft 19 kts 270°
2026-05-04 21:46 39.85669 -104.68028 5379 ft 19 kts 270°
2026-05-04 21:46 39.85665 -104.68168 5378 ft 9 kts 242°
2026-05-04 21:47 39.85617 -104.68209 5379 ft 8 kts 218°
2026-05-04 21:47 39.85599 -104.68268 5377 ft 10 kts 267°
2026-05-04 21:47 39.85598 -104.68397 5375 ft 16 kts 270°
2026-05-04 21:47 39.85580 -104.68504 5371 ft 11 kts 216°
2026-05-04 21:48 39.85514 -104.68515 5373 ft 9 kts 180°
2026-05-04 21:48 39.85444 -104.68515 5374 ft 13 kts 180°
2026-05-04 21:48 39.85308 -104.68516 5376 ft 25 kts 181°
2026-05-04 21:48 39.85205 -104.68570 5374 ft 14 kts 268°
2026-05-04 21:49 39.85202 -104.68722 5367 ft 19 kts 267°
2026-05-04 21:49 39.85199 -104.68909 5358 ft 23 kts 269°
2026-05-04 21:49 39.85194 -104.69128 5349 ft 26 kts 272°
2026-05-04 21:49 39.85202 -104.69377 5339 ft 29 kts 273°
2026-05-04 21:50 39.85200 -104.69591 5339 ft 14 kts 269°
2026-05-04 21:50 39.85253 -104.69658 5334 ft 12 kts 359°
2026-05-04 21:50 39.85424 -104.69658 5335 ft 55 kts 358°
2026-05-04 21:50 39.86057 -104.69648 5337 ft 125 kts 360°
2026-05-04 21:51 39.86725 -104.69642 5335 ft 163 kts 359°
2026-05-04 21:51 39.87907 -104.69584 5976 ft 164 kts
2026-05-04 21:51 39.89022 -104.69462 6742 ft 166 kts
2026-05-04 21:51 39.90204 -104.69358 7367 ft 178 kts 359°
2026-05-04 21:52 39.91500 -104.69272 7893 ft 194 kts 359°
2026-05-04 21:52 39.93314 -104.69825 8511 ft 215 kts 329°
2026-05-04 21:52 39.94110 -104.70652 8736 ft 233 kts 306°
2026-05-04 21:52 39.94574 -104.72649 9690 ft 234 kts 265°
2026-05-04 21:53 39.94019 -104.74649 10590 ft 240 kts 241°
2026-05-04 21:53 39.93149 -104.76487 11470 ft 244 kts 237°
2026-05-04 21:53 39.92157 -104.78295 12370 ft 246 kts 233°
2026-05-04 21:53 39.91074 -104.80044 13249 ft 248 kts 231°
2026-05-04 21:54 39.89930 -104.81776 13903 ft 261 kts 230°
2026-05-04 21:54 39.88669 -104.83662 14092 ft 289 kts 230°
2026-05-04 21:54 39.87361 -104.85653 14400 ft 310 kts 231°
2026-05-04 21:54 39.85939 -104.87868 14803 ft 327 kts 231°
2026-05-04 21:55 39.84460 -104.90207 15281 ft 341 kts 233°
2026-05-04 21:55 39.83471 -104.92989 15995 ft 341 kts 256°
2026-05-04 21:55 39.83016 -104.95861 16848 ft 341 kts 258°
2026-05-04 21:55 39.82540 -104.98905 17554 ft 345 kts 258°
2026-05-04 21:56 39.82019 -105.01963 18327 ft 349 kts 256°
2026-05-04 21:56 39.81426 -105.05029 19012 ft 352 kts 256°
2026-05-04 21:56 39.80796 -105.08113 19678 ft 354 kts 256°
2026-05-04 21:56 39.80161 -105.11221 20290 ft 358 kts 256°
2026-05-04 21:57 39.79507 -105.14357 20916 ft 360 kts 256°
2026-05-04 21:57 39.78845 -105.17525 21418 ft 365 kts 255°
2026-05-04 21:57 39.78177 -105.20764 21679 ft 377 kts 256°
2026-05-04 21:57 39.77496 -105.24117 21791 ft 392 kts 256°
2026-05-04 21:58 39.76778 -105.27607 21830 ft 406 kts 256°
2026-05-04 21:58 39.76098 -105.30996 21828 ft 407 kts 256°
2026-05-04 21:58 39.75370 -105.34555 21847 ft 408 kts 256°
2026-05-04 21:58 39.74645 -105.38126 21860 ft 409 kts 256°
2026-05-04 21:59 39.73909 -105.41701 21847 ft 410 kts 256°
2026-05-04 21:59 39.73173 -105.45287 21831 ft 411 kts 256°
2026-05-04 21:59 39.72440 -105.48883 21826 ft 412 kts 256°
2026-05-04 21:59 39.71696 -105.52483 21847 ft 413 kts 256°
2026-05-04 22:00 39.70953 -105.56099 21843 ft 414 kts 256°
2026-05-04 22:00 39.70214 -105.59717 21838 ft 415 kts 256°
2026-05-04 22:00 39.69474 -105.63339 21836 ft 416 kts 256°
2026-05-04 22:00 39.68765 -105.66825 21749 ft 414 kts 257°
2026-05-04 22:01 39.68089 -105.70426 21509 ft 410 kts 258°
2026-05-04 22:01 39.67431 -105.73966 21200 ft 408 kts 257°
2026-05-04 22:01 39.66760 -105.77548 20911 ft 409 kts 257°
2026-05-04 22:01 39.66085 -105.81143 20661 ft 412 kts 257°
2026-05-04 22:02 39.65401 -105.84762 20383 ft 414 kts 257°
2026-05-04 22:02 39.64712 -105.88393 20113 ft 414 kts 257°
2026-05-04 22:02 39.64026 -105.92023 19847 ft 414 kts 257°
2026-05-04 22:02 39.63339 -105.95647 19602 ft 413 kts 257°
2026-05-04 22:03 39.62659 -105.99237 19343 ft 406 kts 257°
2026-05-04 22:03 39.62020 -106.02566 19111 ft 398 kts 257°
2026-05-04 22:03 39.61385 -106.05912 18849 ft 391 kts 257°
2026-05-04 22:03 39.60735 -106.09313 18592 ft 386 kts 257°
2026-05-04 22:04 39.60092 -106.12676 18321 ft 384 kts 257°
2026-05-04 22:04 39.59451 -106.16031 18028 ft 382 kts 257°
2026-05-04 22:04 39.58809 -106.19364 17720 ft 382 kts 257°
2026-05-04 22:04 39.58164 -106.22708 17427 ft 382 kts 257°
2026-05-04 22:05 39.57533 -106.26006 17147 ft 372 kts 257°
2026-05-04 22:05 39.56919 -106.29221 16854 ft 363 kts 257°
2026-05-04 22:05 39.56311 -106.32365 16570 ft 356 kts 257°
2026-05-04 22:05 39.55729 -106.35337 16307 ft 351 kts 257°
2026-05-04 22:06 39.55142 -106.38366 16053 ft 346 kts 257°
2026-05-04 22:06 39.54557 -106.41378 15794 ft 343 kts 257°
2026-05-04 22:06 39.53969 -106.44356 15515 ft 340 kts 256°
2026-05-04 22:06 39.53383 -106.47302 15213 ft 336 kts 257°
2026-05-04 22:07 39.52806 -106.50228 14952 ft 334 kts 256°
2026-05-04 22:07 39.52193 -106.53112 14711 ft 328 kts 255°
2026-05-04 22:07 39.51564 -106.55906 14453 ft 318 kts 255°
2026-05-04 22:07 39.50951 -106.58554 14164 ft 305 kts 254°
2026-05-04 22:08 39.50341 -106.61176 13881 ft 295 kts 255°
2026-05-04 22:08 39.49766 -106.63650 13615 ft 288 kts 255°
2026-05-04 22:08 39.49175 -106.66151 13382 ft 293 kts 254°
2026-05-04 22:08 39.48569 -106.68679 13142 ft 295 kts 253°
2026-05-04 22:09 39.47994 -106.71108 12953 ft 294 kts 254°
2026-05-04 22:09 39.47419 -106.73654 12794 ft 294 kts 254°
2026-05-04 22:09 39.46850 -106.76193 12556 ft 291 kts 254°
2026-05-04 22:09 39.46303 -106.78661 12440 ft 280 kts 254°
2026-05-04 22:10 39.45775 -106.81040 12363 ft 269 kts 254°
2026-05-04 22:10 39.45271 -106.83323 12352 ft 259 kts 254°
2026-05-04 22:10 39.44779 -106.85523 12346 ft 250 kts 254°
2026-05-04 22:10 39.44308 -106.87640 12385 ft 240 kts 253°
2026-05-04 22:11 39.43482 -106.89445 12360 ft 233 kts 224°
2026-05-04 22:11 39.42125 -106.90549 12420 ft 227 kts 212°
2026-05-04 22:11 39.40727 -106.91442 12423 ft 221 kts 208°
2026-05-04 22:11 39.39237 -106.91922 12381 ft 221 kts 191°
2026-05-04 22:12 39.37697 -106.92117 12199 ft 221 kts 190°
2026-05-04 22:12 39.36191 -106.92241 11979 ft 215 kts 185°
2026-05-04 22:12 39.34711 -106.91908 11758 ft 215 kts 172°
2026-05-04 22:12 39.33300 -106.91470 11554 ft 208 kts 172°
2026-05-04 22:13 39.31984 -106.91022 11332 ft 183 kts 168°
2026-05-04 22:13 39.30818 -106.90579 10850 ft 170 kts 171°
2026-05-04 22:13 39.29706 -106.90166 10312 ft 163 kts 170°
2026-05-04 22:13 39.28619 -106.89753 9784 ft 162 kts 168°
2026-05-04 22:14 39.27532 -106.89358 9261 ft 163 kts 167°
2026-05-04 22:14 39.26442 -106.88956 8749 ft 162 kts 160°
2026-05-04 22:14 39.25415 -106.88397 8239 ft 158 kts 156°
2026-05-04 22:14 39.24390 -106.87864 7889 ft 163 kts 163°
2026-05-04 22:15 39.23304 -106.87355 7726 ft 167 kts 159°
2026-05-04 22:15 39.22329 -106.86890 7750 ft 122 kts 160°
2026-05-04 22:15 39.21776 -106.86627 7799 ft 46 kts 160°
2026-05-04 22:15 39.21682 -106.86557 7806 ft 7 kts 85°
2026-05-04 22:16 39.21700 -106.86495 7806 ft 7 kts 47°
2026-05-04 22:16 39.21770 -106.86505 7799 ft 15 kts 339°
2026-05-04 22:16 39.21859 -106.86547 7786 ft 10 kts 341°
2026-05-04 22:16 39.21908 -106.86538 7782 ft 8 kts 54°
2026-05-04 22:17 39.21925 -106.86483 7776 ft 2 kts 72°
2026-05-04 22:17 39.21927 -106.86476 7781 ft 0 kts 72°